"Time","Temp","Dewpoint","Humidity","Pressure","Direction","Speed","Gust","Precip","PrecipRate"
"00:04:58","56","50.4","81.3","29.86","335","0","0","0.00","0.00"
"00:09:58","55.8","50.4","82","29.86","335","0","0","0.00","0.00"
"00:14:56","55.5","50.2","82.6","29.86","335","0","0","0.00","0.00"
"00:19:57","55.1","50","83","29.85","335","0","0","0.00","0.00"
"00:24:56","54.8","49.9","83.5","29.85","335","0","0","0.00","0.00"
"00:29:56","54.7","50.2","84.8","29.85","335","0","0","0.00","0.00"
"00:34:59","54.6","50.2","85","29.85","335","0","0","0.00","0.00"
"00:39:59","54.5","50.1","85","29.85","335","0","0","0.00","0.00"
"00:44:58","54.3","49.9","85.1","29.85","335","0","2.4","0.00","0.00"
"00:49:57","54.1","50","86","29.85","335","1.2","2.4","0.00","0.00"
"00:54:56","54","50.2","86.9","29.85","335","0.8","2.4","0.00","0.00"
"00:59:59","53.9","49.9","86.5","29.85","335","0","0","0.00","0.00"
"01:04:59","53.7","49.9","86.8","29.85","335","0","0","0.00","0.00"
"01:09:59","53.6","49.8","87","29.85","335","0","0","0.00","0.00"
"01:14:58","53.4","49.6","87","29.85","335","0","1.2","0.00","0.00"
"01:19:57","53.2","49.6","87.5","29.85","335","0","0","0.00","0.00"
"01:24:56","52.9","49.4","88","29.85","335","0","1.2","0.00","0.00"
"01:29:58","52.6","49.3","88.3","29.85","335","0","0","0.00","0.00"
"01:34:57","52.4","49.3","89","29.84","335","0","0","0.00","0.00"
"01:39:56","52.2","49.2","89.4","29.84","335","0","0","0.00","0.00"
"01:44:56","52","49.2","90","29.84","335","0","0","0.00","0.00"
"01:49:59","51.9","49.1","90","29.84","335","0","0","0.00","0.00"
"01:54:57","51.8","49.1","90.6","29.84","335","0","0","0.00","0.00"
"01:59:56","51.7","49.1","90.7","29.84","335","0","0","0.00","0.00"
"02:04:56","51.7","49.2","91","29.84","335","0","0","0.00","0.00"
"02:09:56","51.7","49.2","91","29.84","335","0","0","0.00","0.00"
"02:14:56","51.8","49.3","91","29.84","335","0","0","0.00","0.00"
"02:19:59","51.7","49.2","91","29.84","335","0","0","0.00","0.00"
"02:24:58","51.6","49","90.8","29.84","335","0","0","0.00","0.00"
"02:29:57","51.3","48.6","90.3","29.84","335","0","0","0.00","0.00"
"02:34:59","51.1","48.6","91","29.84","335","0.1","1.2","0.00","0.00"
"02:39:59","51","48.6","91.3","29.84","335","0","1.2","0.00","0.00"
"02:44:58","51","48.8","92","29.84","335","0","0","0.00","0.00"
"02:49:57","51.1","48.9","92","29.84","335","0","0","0.00","0.00"
"02:54:56","51","48.8","92","29.84","335","0","0","0.00","0.00"
"02:59:59","50.9","48.7","92","29.84","335","0","0","0.00","0.00"
"03:04:57","50.7","48.5","92","29.84","335","0","0","0.00","0.00"
"03:09:56","50.5","48.3","92","29.84","335","0","0","0.00","0.00"
"03:14:56","50.4","48.2","92","29.84","335","0","0","0.00","0.00"
"03:19:59","50.3","48.2","92.5","29.83","335","0","0","0.00","0.00"
"03:24:58","50.2","48.3","93","29.83","335","0","0","0.00","0.00"
"03:29:56","50.1","48.2","93","29.84","335","0","0","0.00","0.00"
"03:34:59","50","48.1","93","29.84","335","0","0","0.00","0.00"
"03:39:59","49.9","48","93","29.84","335","0","0","0.00","0.00"
"03:44:58","49.8","47.9","93","29.84","335","0","0","0.00","0.00"
"03:49:56","49.7","48","94","29.84","335","0","0","0.00","0.00"
"03:54:58","49.9","48.2","94","29.84","335","0","0","0.00","0.00"
"03:59:57","49.9","48.2","94","29.84","335","0","0","0.00","0.00"
"04:04:57","49.8","48.1","94","29.84","335","0","0","0.00","0.00"
"04:09:56","49.7","48","94","29.84","335","0","0","0.00","0.00"
"04:14:56","49.8","48.1","94.2","29.84","335","0","0","0.00","0.00"
"04:19:57","49.8","48.2","94.3","29.84","335","0","0","0.00","0.00"
"04:24:58","49.7","48","94","29.84","335","0","0","0.00","0.00"
"04:29:57","49.6","47.9","94","29.84","335","0","0","0.00","0.00"
"04:34:56","49.4","47.7","94","29.84","335","0","0","0.00","0.00"
"04:39:59","49.3","47.6","94","29.84","335","0","0","0.00","0.00"
"04:44:58","49.2","47.5","94","29.84","335","0","0","0.00","0.00"
"04:49:57","49.1","47.4","94","29.84","335","0","0","0.00","0.00"
"04:54:59","49","47.5","94.6","29.84","335","0","0","0.00","0.00"
"04:59:58","48.9","47.5","95","29.84","335","0","0","0.00","0.00"
"05:04:58","49","47.6","95","29.84","335","0","0","0.00","0.00"
"05:09:58","49","47.6","95","29.84","335","0","0","0.00","0.00"
"05:14:57","48.9","47.5","95","29.84","335","0","0","0.00","0.00"
"05:19:56","48.9","47.5","95","29.84","335","0","0","0.00","0.00"
"05:24:59","48.9","47.5","95","29.84","335","0","0","0.00","0.00"
"05:29:58","48.8","47.4","95","29.85","335","0","0","0.00","0.00"
"05:34:58","48.6","47.2","95","29.85","335","0","0","0.00","0.00"
"05:39:58","48.6","47.2","95","29.85","335","0","0","0.00","0.00"
"05:44:56","48.6","47.2","95","29.85","335","0","0","0.00","0.00"
"05:49:56","48.5","47.1","95","29.85","335","0","0","0.00","0.00"
"05:54:59","48.4","47","95","29.85","335","0","0","0.00","0.00"
"05:59:58","48.3","46.9","95","29.86","335","0","0","0.00","0.00"
"06:04:58","48.2","46.8","95","29.86","335","0","0","0.00","0.00"
"06:09:59","48.2","46.8","95","29.86","335","0","0","0.00","0.00"
"06:14:59","48.1","46.7","95","29.86","335","0","0","0.00","0.00"
"06:19:58","48.1","46.7","95","29.86","335","0","0","0.00","0.00"
"06:24:56","48.1","47","95.8","29.86","335","0","0","0.00","0.00"
"06:29:58","48.2","47.1","96","29.86","335","0","0","0.00","0.00"
"06:34:57","48.3","47.2","96","29.86","335","0","0","0.00","0.00"
"06:39:56","48.4","47.3","96","29.86","335","0","0","0.00","0.00"
"06:44:58","48.5","47.4","96","29.86","335","0","0","0.00","0.00"
"06:49:57","48.8","47.7","96","29.86","335","0","0","0.00","0.00"
"06:54:56","49","47.9","96","29.86","335","0","0","0.00","0.00"
"06:59:58","49.4","48.5","96.6","29.87","335","0","0","0.00","0.00"
"07:04:58","49.8","49","97","29.87","335","0","0","0.00","0.00"
"07:09:58","50.2","49.4","97","29.87","335","0","0","0.00","0.00"
"07:14:57","50.6","49.8","97","29.87","335","0","0","0.00","0.00"
"07:19:59","51","50.2","97","29.87","335","0","0","0.00","0.00"
"07:24:58","51.5","50.7","97","29.87","335","0","0","0.00","0.00"
"07:29:56","52","51.2","97","29.87","335","0","0","0.00","0.00"
"07:34:58","52.8","52","97","29.87","335","0","0","0.00","0.00"
"07:39:57","53.4","52.6","97","29.87","335","0","0","0.00","0.00"
"07:44:56","54.1","53.3","97","29.87","335","0","0","0.00","0.00"
"07:49:58","54.7","53.9","96.8","29.87","335","0","0","0.00","0.00"
"07:54:57","55.5","54.5","96.2","29.87","335","0","0","0.00","0.00"
"07:59:56","56.2","54.5","94.1","29.87","335","0","0","0.00","0.00"
"08:04:56","57","54.5","91.2","29.87","335","0","0","0.00","0.00"
"08:09:59","58.3","54.8","88.3","29.87","335","0","0","0.00","0.00"
"08:14:59","59.5","54.7","84","29.88","335","0","0","0.00","0.00"
"08:19:57","60.7","54.8","80.9","29.88","335","0","0","0.00","0.00"
"08:24:59","61.9","55.6","79.9","29.88","335","0","0","0.00","0.00"
"08:29:58","62.9","56","78.2","29.88","335","0","0","0.00","0.00"
"08:34:56","63.9","56.6","77.1","29.87","335","0","0","0.00","0.00"
"08:39:59","64.8","56.6","74.9","29.87","335","0","0","0.00","0.00"
"08:44:57","65.7","56.6","72.5","29.87","221","0.4","2.4","0.00","0.00"
"08:49:59","66.7","56.9","70.6","29.87","228","0.6","4.8","0.00","0.00"
"08:54:58","67.7","56.1","66.6","29.87","309","2","4.8","0.00","0.00"
"08:59:56","68.5","55.9","64.2","29.88","286","1.9","4.8","0.00","0.00"
"09:04:56","69.2","55.5","61.7","29.88","210","1.7","4.8","0.00","0.00"
"09:09:59","69.7","54.9","59.4","29.88","251","2.8","7.2","0.00","0.00"
"09:14:58","70","54.4","57.6","29.88","273","2.5","6","0.00","0.00"
"09:19:56","70.4","54.8","57.8","29.88","235","2.9","7.2","0.00","0.00"
"09:24:58","70.8","54.9","57.2","29.88","250","2.7","7.2","0.00","0.00"
"09:29:59","71.2","55","56.5","29.88","271","3.4","10.8","0.00","0.00"
"09:34:57","71.6","55","55.9","29.87","300","3.8","8.4","0.00","0.00"
"09:39:56","71.8","54.8","55","29.87","256","3.5","10.8","0.00","0.00"
"09:44:58","72.1","55.3","55.5","29.87","254","3.1","8.4","0.00","0.00"
"09:49:56","72.3","54.8","54.1","29.87","329","3.7","10.8","0.00","0.00"
"09:54:58","72.7","55.6","55","29.87","239","3.9","8.4","0.00","0.00"
"09:59:56","73.1","55.6","54.3","29.87","207","3.3","7.2","0.00","0.00"
"10:04:59","73.2","55.4","53.7","29.87","295","2.6","7.2","0.00","0.00"
"10:09:58","73.5","55.7","53.7","29.87","287","3.2","7.2","0.00","0.00"
"10:14:57","74","54.9","51.4","29.87","253","3","14.4","0.00","0.00"
"10:19:59","74.1","53.7","49","29.87","319","5.2","13.2","0.00","0.00"
"10:24:58","74","54","49.6","29.87","346","3.4","8.4","0.00","0.00"
"10:29:59","74.5","54.5","49.7","29.87","253","3.5","8.4","0.00","0.00"
"10:34:58","74.9","54.4","49","29.87","305","3.3","7.2","0.00","0.00"
"10:39:56","75.3","54.4","48.3","29.87","229","3.3","10.8","0.00","0.00"
"10:44:58","75.3","54.2","47.9","29.87","313","4.1","12","0.00","0.00"
"10:49:57","75.7","54.6","48","29.87","290","2.3","6.9","0.00","0.00"
"10:54:59","76.2","54.8","47.6","29.87","255","3.8","10.8","0.00","0.00"
"10:59:57","76","54.3","47.1","29.87","295","3.4","10.4","0.00","0.00"
"11:04:57","76","54.1","46.6","29.87","257","2.8","7.2","0.00","0.00"
"11:09:59","76.6","54.5","46.4","29.87","323","4","10.8","0.00","0.00"
"11:14:59","76.6","54.1","45.7","29.87","318","2.5","6","0.00","0.00"
"11:19:57","77.1","54.4","45.5","29.87","301","2.6","4.8","0.00","0.00"
"11:24:59","77.5","54.1","44.4","29.87","332","3.7","8.4","0.00","0.00"
"11:29:57","77.3","54.7","45.7","29.87","229","3.6","9.6","0.00","0.00"
"11:34:59","77.5","54","44.2","29.87","321","4.6","9.6","0.00","0.00"
"11:39:58","77.9","54.3","44.2","29.87","335","4.5","12","0.00","0.00"
"11:44:56","77.6","54.3","44.6","29.87","326","2.9","10.8","0.00","0.00"
"11:49:58","77.8","54.6","44.9","29.87","312","2.9","7.2","0.00","0.00"
"11:54:56","78.2","54.7","44.4","29.87","215","2.5","4.8","0.00","0.00"
"11:59:56","79.1","56.1","45.3","29.87","248","2.4","6","0.00","0.00"
"12:04:58","79.5","56.2","44.8","29.86","337","1.8","8.4","0.00","0.00"
"12:09:58","79.3","54.7","42.9","29.86","282","3","9.6","0.00","0.00"
"12:14:59","79.4","55.3","43.6","29.86","280","2.9","6","0.00","0.00"
"12:19:59","78.8","55.3","44.5","29.86","223","2.7","7.2","0.00","0.00"
"12:24:59","79.1","55.9","44.9","29.86","325","2.2","10.8","0.00","0.00"
"12:29:59","79.8","56.3","44.7","29.86","327","1.5","4.8","0.00","0.00"
"12:34:59","79","54.7","43.2","29.86","226","2.4","6","0.00","0.00"
"12:39:58","78.4","52.7","41","29.86","348","3.6","8.4","0.00","0.00"
"12:44:57","78.2","54.2","43.7","29.86","349","1.6","3.6","0.00","0.00"
"12:49:56","79.1","55.7","44.6","29.85","40","1.9","3.6","0.00","0.00"
"12:54:56","79.9","54.3","41.3","29.85","345","2.5","16.1","0.00","0.00"
"12:59:59","79.3","52.8","39.9","29.85","243","3.4","16.1","0.00","0.00"
"13:04:59","78.1","52.3","40.8","29.85","223","1.6","5.8","0.00","0.00"
"13:09:58","78.2","53.1","41.8","29.85","261","2","4.8","0.00","0.00"
"13:14:55","79.9","53","39.5","29.85","276","4","7.2","0.00","0.00"
"13:19:59","81.1","55.1","40.9","29.84","220","4.9","16.1","0.00","0.00"
"13:24:59","81","54.7","40.5","29.84","223","4.2","8.4","0.00","0.00"
"13:29:56","81.4","55.4","40.9","29.84","235","2.6","8.4","0.00","0.00"
"13:34:56","81.7","54.3","39","29.84","216","2.7","8.4","0.00","0.00"
"13:39:56","81.7","55.5","40.7","29.84","215","3.9","8.4","0.00","0.00"
"13:44:57","81.6","55.6","41.1","29.84","206","3.7","10.8","0.00","0.00"
"13:49:57","82.5","56.3","40.7","29.84","202","3.9","8.4","0.00","0.00"
"13:54:56","82.1","54.8","39.2","29.84","216","3.7","7.2","0.00","0.00"
"13:59:56","81.3","53.6","38.5","29.84","262","3.1","6","0.00","0.00"
"14:04:58","81.2","53.9","39.1","29.84","298","1.8","7.2","0.00","0.00"
"14:09:59","82.1","55.7","40.5","29.84","207","3.7","7.2","0.00","0.00"
"14:14:59","82.3","54.5","38.4","29.84","291","4.1","7.2","0.00","0.00"
"14:19:59","82.5","54.5","38.3","29.84","345","1.3","7.2","0.00","0.00"
"14:24:59","81.5","53.9","38.8","29.84","219","3.2","7.2","0.00","0.00"
"14:29:59","81.9","54.8","39.4","29.84","236","5.5","13.2","0.00","0.00"
"14:34:59","82.2","54.7","38.8","29.84","217","3.9","7.2","0.00","0.00"
"14:39:56","83","56.5","40.5","29.84","215","2.6","6.9","0.00","0.00"
"14:44:56","83.7","55.8","38.7","29.84","200","5.1","13.2","0.00","0.00"
"14:49:56","82.4","55.8","40.2","29.83","163","1.7","4.8","0.00","0.00"
"14:54:56","83","58.5","43.7","29.83","129","1.2","8.4","0.00","0.00"
"14:59:56","83.6","56.7","40","29.83","198","2","8.1","0.00","0.00"
"15:04:57","83.6","55.3","38.1","29.83","195","4","9.6","0.00","0.00"
"15:09:58","83.7","55.5","38.2","29.83","209","4.6","10.8","0.00","0.00"
"15:14:59","83.8","54.7","36.9","29.83","192","2.6","6","0.00","0.00"
"15:19:56","83.8","54.3","36.5","29.82","189","3.2","6","0.00","0.00"
"15:24:56","84.1","55.2","37.4","29.82","226","3.6","10.8","0.00","0.00"
"15:29:56","83.9","54.3","36.2","29.82","265","3.3","9.6","0.00","0.00"
"15:34:57","83.9","54","35.9","29.82","276","3.6","13.2","0.00","0.00"
"15:39:58","84.3","54.8","36.5","29.82","232","2.5","7.2","0.00","0.00"
"15:44:59","84.3","55","36.8","29.82","314","3.7","9.6","0.00","0.00"
"15:49:56","84","54.1","35.9","29.82","358","4.1","8.4","0.00","0.00"
"15:54:57","84","54.5","36.5","29.82","349","1.8","6","0.00","0.00"
"15:59:57","84.2","54.5","36.3","29.82","346","2.3","6","0.00","0.00"
"16:04:59","84","54.5","36.5","29.82","283","2.1","7.2","0.00","0.00"
"16:09:56","84.5","53.4","34.5","29.82","284","3.1","10.8","0.00","0.00"
"16:14:57","85.2","54.6","35.3","29.82","220","2.4","7.2","0.00","0.00"
"16:19:58","85.1","54.4","35.1","29.81","308","2.3","6.9","0.00","0.00"
"16:24:58","84.8","53.1","33.6","29.81","315","3.1","12","0.00","0.00"
"16:29:58","84.5","53.7","34.9","29.81","249","3.8","7.2","0.00","0.00"
"16:34:58","84.9","53.2","33.9","29.81","261","4","8.4","0.00","0.00"
"16:39:59","84.9","54.4","35.2","29.81","221","3.4","7.2","0.00","0.00"
"16:44:59","85.1","54.1","34.7","29.81","256","4","13.2","0.00","0.00"
"16:49:59","85.4","54.7","35.2","29.81","231","4.1","7.2","0.00","0.00"
"16:54:55","85","53.6","34.2","29.81","192","4.1","10.8","0.00","0.00"
"16:59:56","84.8","53.6","34.3","29.81","176","3.8","7.2","0.00","0.00"
"17:04:57","84.7","53","33.8","29.81","209","3.7","7.2","0.00","0.00"
"17:09:58","84.4","54","35.4","29.81","252","3.3","7.2","0.00","0.00"
"17:14:59","84.2","53.9","35.3","29.81","221","3.2","6","0.00","0.00"
"17:19:59","84.5","53.8","34.9","29.81","229","3","5.8","0.00","0.00"
"17:24:56","84.7","53.7","34.7","29.81","220","2.9","7.2","0.00","0.00"
"17:29:56","84.6","53.7","34.8","29.81","219","3.7","8.4","0.00","0.00"
"17:34:57","84.4","53.8","35.1","29.81","207","4.7","12","0.00","0.00"
"17:39:58","83.9","53.8","35.6","29.81","193","3.3","7.2","0.00","0.00"
"17:44:58","83.9","54.5","36.6","29.81","186","2.6","6","0.00","0.00"
"17:49:57","83.7","54.9","37.3","29.81","176","3.4","12","0.00","0.00"
"17:54:57","83.4","53.8","36.3","29.81","222","3.6","8.4","0.00","0.00"
"17:59:57","83.1","53.5","36.2","29.81","189","2.7","8.1","0.00","0.00"
"18:04:59","82.9","53.6","36.7","29.81","155","2.1","3.6","0.00","0.00"
"18:09:56","82.9","54.1","37.2","29.81","182","2.5","4.8","0.00","0.00"
"18:14:58","82.8","53","36","29.81","199","2.8","4.8","0.00","0.00"
"18:19:58","82.4","53.5","36.9","29.81","206","0.8","4.8","0.00","0.00"
"18:24:58","82.4","53.4","36.8","29.81","200","2","4.8","0.00","0.00"
"18:29:59","82.4","52.7","35.8","29.81","198","1.7","4.8","0.00","0.00"
"18:34:59","82.3","53.2","36.7","29.81","195","3.1","6","0.00","0.00"
"18:39:56","82.4","53.5","37","29.81","194","2","4.6","0.00","0.00"
"18:44:56","82.4","53.9","37.6","29.82","180","3.2","7.2","0.00","0.00"
"18:49:57","82.3","53.6","37.3","29.82","197","3.2","7.2","0.00","0.00"
"18:54:57","82","53.7","37.8","29.82","170","2.6","6","0.00","0.00"
"18:59:57","81.7","54","38.6","29.82","188","3.2","10.8","0.00","0.00"
"19:04:59","81.3","54.5","39.7","29.82","183","3.2","7.2","0.00","0.00"
"19:09:56","81.1","54.6","40.2","29.82","205","2.7","6","0.00","0.00"
"19:14:57","81","55.2","41.3","29.82","178","2.9","6","0.00","0.00"
"19:19:57","80.7","55.2","41.5","29.82","189","3.1","7.2","0.00","0.00"
"19:24:58","80.6","55.4","42","29.82","199","2.5","6","0.00","0.00"
"19:29:58","80.3","55","41.8","29.82","144","2.4","4.8","0.00","0.00"
"19:34:58","80.1","54.6","41.4","29.81","151","2.5","4.8","0.00","0.00"
"19:39:59","79.9","55.2","42.7","29.81","140","1.8","4.8","0.00","0.00"
"19:44:56","79.8","55.4","43.2","29.81","133","1.9","3.6","0.00","0.00"
"19:49:56","79.5","55.3","43.5","29.81","134","1.7","3.6","0.00","0.00"
"19:54:57","79.2","54.9","43.3","29.81","135","1.6","3.6","0.00","0.00"
"19:59:57","78.8","55.8","45.2","29.81","135","1.3","3.6","0.00","0.00"
"20:04:57","78.3","56","46.2","29.81","135","0.9","2.4","0.00","0.00"
"20:09:56","77.9","56.1","47.1","29.81","135","0.6","2.4","0.00","0.00"
"20:14:56","77.3","55.9","47.7","29.81","135","0.2","2.4","0.00","0.00"
"20:19:59","76.7","55.4","47.9","29.81","135","0.1","1.2","0.00","0.00"
"20:24:59","76.2","55.1","48.1","29.81","135","0","0","0.00","0.00"
"20:29:58","75.5","55","48.9","29.82","135","0.2","1.2","0.00","0.00"
"20:34:57","75","53.5","47.2","29.82","135","0.2","1.2","0.00","0.00"
"20:39:57","74.7","55","50.3","29.82","135","0.2","1.2","0.00","0.00"
"20:44:56","74.2","54.2","49.7","29.82","135","0","0","0.00","0.00"
"20:49:56","73.8","55.2","52.2","29.82","135","0","0","0.00","0.00"
"20:54:56","73.1","55.3","53.6","29.82","135","0","0","0.00","0.00"
"20:59:59","72.3","54.8","54.3","29.82","148","0","1.2","0.00","0.00"
"21:04:59","71.6","55.1","55.9","29.82","148","0","0","0.00","0.00"
"21:09:58","71","55","57","29.82","148","0","0","0.00","0.00"
"21:14:58","70.5","55.2","58.4","29.83","148","0","1.2","0.00","0.00"
"21:19:57","70.2","55.4","59.5","29.83","148","0","0","0.00","0.00"
"21:24:56","69.8","55.3","60","29.83","148","0","0","0.00","0.00"
"21:29:56","69.5","55.5","61","29.83","148","0","0","0.00","0.00"
"21:34:59","69","55.4","62","29.83","148","0","0","0.00","0.00"
"21:39:59","68.5","55.4","63.1","29.83","148","0","0","0.00","0.00"
"21:44:58","68.1","55.4","63.9","29.84","148","0","0","0.00","0.00"
"21:49:57","67.8","55.6","65","29.84","148","0","0","0.00","0.00"
"21:54:57","67.5","55.2","64.8","29.84","148","0","0","0.00","0.00"
"21:59:59","67.3","54.9","64.7","29.85","148","0","0","0.00","0.00"
"22:04:56","67","55","65.5","29.85","148","0","0","0.00","0.00"
"22:09:56","66.7","55.2","66.5","29.85","148","0","0","0.00","0.00"
"22:14:56","66.3","55.3","67.6","29.85","148","0","0","0.00","0.00"
"22:19:59","65.9","55","68.1","29.85","148","0","0","0.00","0.00"
"22:24:58","65.5","55.1","69","29.85","148","0","0","0.00","0.00"
"22:29:57","65.3","55.1","69.5","29.85","148","0","0","0.00","0.00"
"22:34:56","65","55","70","29.85","148","0","0","0.00","0.00"
"22:39:58","64.7","55.1","71","29.85","148","0","0","0.00","0.00"
"22:44:56","64.5","54.9","71","29.85","148","0","0","0.00","0.00"
"22:49:56","64.3","55.1","71.8","29.85","148","0","0","0.00","0.00"
"22:54:59","64.2","55","72","29.85","148","0","0","0.00","0.00"
"22:59:58","64","55","72.6","29.86","148","0","0","0.00","0.00"
"23:04:58","63.7","54.9","73","29.86","148","0","0","0.00","0.00"
"23:09:58","63.5","55.1","74","29.86","148","0","0","0.00","0.00"
"23:14:58","63.3","54.9","74","29.86","148","0","0","0.00","0.00"
"23:19:57","63.1","54.7","74","29.85","148","0","0","0.00","0.00"
"23:24:56","62.9","54.9","74.9","29.85","148","0","0","0.00","0.00"
"23:29:59","62.8","55.1","75.9","29.85","148","0","0","0.00","0.00"
"23:34:58","62.7","55","76","29.85","148","0","0","0.00","0.00"
"23:39:58","62.6","55.1","76.5","29.85","148","0","0","0.00","0.00"
"23:44:57","62.3","55","77","29.85","148","0","0","0.00","0.00"
